Time,TemperatureF,DewpointF,PressureIn,WindDirection,WindDirectionDegrees,WindSpeedMPH,WindSpeedGustMPH,Humidity,HourlyPrecipIn,Conditions,Clouds,dailyrainin,SoftwareType,DateUTC
2013-02-22 00:02:00,26.4,17.5,29.24,North,0,0.0,-999.0,68,0.00,,,-99.99,,2013-02-22 09:02:00,
2013-02-22 00:07:00,26.7,15.9,29.24,North,0,0.0,-999.0,63,0.00,,,-99.99,,2013-02-22 09:07:00,
2013-02-22 00:12:00,26.5,17.5,29.24,North,0,0.0,-999.0,68,0.00,,,-99.99,,2013-02-22 09:12:00,
2013-02-22 00:17:00,26.7,17.3,29.24,North,0,0.0,-999.0,67,0.00,,,-99.99,,2013-02-22 09:17:00,
2013-02-22 00:22:00,26.9,16.6,29.24,North,0,0.0,-999.0,64,0.01,,,-99.99,,2013-02-22 09:22:00,
2013-02-22 00:27:00,27.0,17.6,29.24,North,0,0.0,-999.0,67,0.01,,,-99.99,,2013-02-22 09:27:00,
2013-02-22 00:32:00,27.1,17.6,29.24,North,0,0.0,-999.0,67,0.01,,,-99.99,,2013-02-22 09:32:00,
2013-02-22 00:37:00,27.1,18.1,29.24,North,0,0.0,-999.0,68,0.01,,,-99.99,,2013-02-22 09:37:00,
2013-02-22 00:42:00,27.0,17.7,29.24,North,0,0.0,-999.0,67,0.01,,,-99.99,,2013-02-22 09:42:00,
2013-02-22 00:47:00,26.7,18.2,29.24,North,0,0.0,-999.0,69,0.01,,,-99.99,,2013-02-22 09:47:00,
2013-02-22 00:52:00,26.7,18.3,29.24,North,0,0.0,-999.0,70,0.01,,,-99.99,,2013-02-22 09:52:00,
2013-02-22 00:57:00,26.8,18.9,29.24,North,0,0.0,-999.0,71,0.01,,,-99.99,,2013-02-22 09:57:00,
2013-02-22 01:02:00,27.1,19.0,29.26,North,0,0.0,-999.0,71,0.00,,,-99.99,,2013-02-22 10:02:00,
2013-02-22 01:07:00,27.1,19.4,29.26,North,0,0.0,-999.0,72,0.00,,,-99.99,,2013-02-22 10:07:00,
2013-02-22 01:12:00,27.2,19.3,29.26,North,0,0.0,-999.0,71,0.00,,,-99.99,,2013-02-22 10:12:00,
2013-02-22 01:17:00,27.3,18.9,29.26,North,0,0.0,-999.0,70,0.00,,,-99.99,,2013-02-22 10:17:00,
2013-02-22 01:22:00,27.4,19.0,29.26,North,0,0.0,-999.0,70,0.00,,,-99.99,,2013-02-22 10:22:00,
2013-02-22 01:27:00,27.5,19.0,29.26,North,0,0.0,-999.0,69,0.00,,,-99.99,,2013-02-22 10:27:00,
2013-02-22 01:32:00,27.4,19.0,29.26,North,0,0.0,-999.0,70,0.00,,,-99.99,,2013-02-22 10:32:00,
2013-02-22 01:37:00,27.5,19.3,29.26,North,0,0.0,-999.0,70,0.00,,,-99.99,,2013-02-22 10:37:00,
2013-02-22 01:42:00,27.5,19.2,29.26,North,0,0.0,-999.0,70,0.00,,,-99.99,,2013-02-22 10:42:00,
2013-02-22 01:47:00,27.4,19.8,29.26,North,0,0.0,-999.0,72,0.00,,,-99.99,,2013-02-22 10:47:00,
2013-02-22 01:52:00,27.5,19.8,29.26,North,0,0.0,-999.0,72,0.00,,,-99.99,,2013-02-22 10:52:00,
2013-02-22 01:57:00,27.6,19.3,29.26,North,0,0.0,-999.0,70,0.00,,,-99.99,,2013-02-22 10:57:00,
2013-02-22 02:02:00,27.8,19.4,29.29,North,0,0.0,-999.0,70,0.00,,,-99.99,,2013-02-22 11:02:00,
2013-02-22 02:07:00,27.6,19.6,29.29,North,0,0.0,-999.0,71,0.00,,,-99.99,,2013-02-22 11:07:00,
2013-02-22 02:12:00,27.6,20.0,29.29,North,0,0.0,-999.0,72,0.00,,,-99.99,,2013-02-22 11:12:00,
2013-02-22 02:17:00,27.5,20.0,29.29,North,0,0.0,-999.0,72,0.00,,,-99.99,,2013-02-22 11:17:00,
2013-02-22 02:22:00,27.8,19.9,29.29,North,0,0.0,-999.0,71,0.00,,,-99.99,,2013-02-22 11:22:00,
2013-02-22 02:27:00,27.5,19.4,29.29,North,0,0.0,-999.0,71,0.00,,,-99.99,,2013-02-22 11:27:00,
2013-02-22 02:32:00,27.5,20.0,29.29,North,0,0.0,-999.0,72,0.00,,,-99.99,,2013-02-22 11:32:00,
2013-02-22 02:37:00,27.3,19.0,29.29,North,0,0.0,-999.0,70,0.00,,,-99.99,,2013-02-22 11:37:00,
2013-02-22 02:42:00,27.5,20.3,29.29,North,0,0.0,-999.0,73,0.00,,,-99.99,,2013-02-22 11:42:00,
2013-02-22 02:47:00,27.5,19.8,29.29,North,0,0.0,-999.0,72,0.00,,,-99.99,,2013-02-22 11:47:00,
2013-02-22 02:52:00,27.8,19.8,29.29,North,0,0.0,-999.0,71,0.00,,,-99.99,,2013-02-22 11:52:00,
2013-02-22 02:57:00,27.9,20.1,29.29,North,0,0.0,-999.0,72,0.00,,,-99.99,,2013-02-22 11:57:00,
2013-02-22 03:02:00,28.0,19.3,29.32,North,0,0.0,-999.0,69,0.00,,,-99.99,,2013-02-22 12:02:00,
2013-02-22 03:07:00,28.0,19.7,29.32,North,0,0.0,-999.0,70,0.00,,,-99.99,,2013-02-22 12:07:00,
2013-02-22 03:12:00,28.0,20.5,29.32,North,0,0.0,-999.0,73,0.00,,,-99.99,,2013-02-22 12:12:00,
2013-02-22 03:17:00,27.8,19.7,29.32,North,0,0.0,-999.0,71,0.01,,,-99.99,,2013-02-22 12:17:00,
2013-02-22 03:22:00,27.6,20.3,29.32,North,0,0.0,-999.0,73,0.01,,,-99.99,,2013-02-22 12:22:00,
2013-02-22 03:27:00,27.6,19.7,29.32,North,0,0.0,-999.0,71,0.01,,,-99.99,,2013-02-22 12:27:00,
2013-02-22 03:32:00,28.0,20.1,29.32,North,0,0.0,-999.0,71,0.01,,,-99.99,,2013-02-22 12:32:00,
2013-02-22 03:37:00,28.1,20.0,29.32,North,0,0.0,-999.0,71,0.01,,,-99.99,,2013-02-22 12:37:00,
2013-02-22 03:42:00,28.3,19.7,29.32,North,0,0.0,-999.0,69,0.01,,,-99.99,,2013-02-22 12:42:00,
2013-02-22 03:47:00,28.2,20.4,29.32,North,0,0.0,-999.0,72,0.01,,,-99.99,,2013-02-22 12:47:00,
2013-02-22 03:52:00,28.3,20.1,29.32,North,0,0.0,-999.0,71,0.01,,,-99.99,,2013-02-22 12:52:00,
2013-02-22 03:57:00,28.3,20.1,29.32,North,0,0.0,-999.0,70,0.01,,,-99.99,,2013-02-22 12:57:00,
2013-02-22 04:02:00,28.4,20.0,29.34,North,0,0.0,-999.0,70,0.00,,,-99.99,,2013-02-22 13:02:00,
2013-02-22 04:07:00,28.2,20.4,29.34,North,0,0.0,-999.0,72,0.00,,,-99.99,,2013-02-22 13:07:00,
2013-02-22 04:12:00,28.3,20.4,29.34,North,0,0.0,-999.0,71,0.00,,,-99.99,,2013-02-22 13:12:00,
2013-02-22 04:17:00,28.4,20.5,29.34,North,0,0.0,-999.0,71,0.00,,,-99.99,,2013-02-22 13:17:00,
2013-02-22 04:22:00,28.4,20.2,29.34,North,0,0.0,-999.0,71,0.00,,,-99.99,,2013-02-22 13:22:00,
2013-02-22 04:27:00,28.8,20.5,29.34,North,0,0.0,-999.0,70,0.00,,,-99.99,,2013-02-22 13:27:00,
2013-02-22 04:32:00,28.9,20.9,29.34,North,0,0.0,-999.0,71,0.00,,,-99.99,,2013-02-22 13:32:00,
2013-02-22 04:37:00,29.0,20.5,29.34,North,0,0.0,-999.0,70,0.00,,,-99.99,,2013-02-22 13:37:00,
2013-02-22 04:42:00,28.9,20.7,29.34,North,0,0.0,-999.0,70,0.00,,,-99.99,,2013-02-22 13:42:00,
2013-02-22 04:47:00,28.6,19.9,29.34,North,0,0.0,-999.0,69,0.00,,,-99.99,,2013-02-22 13:47:00,
2013-02-22 04:52:00,28.9,20.8,29.34,North,0,0.0,-999.0,71,0.00,,,-99.99,,2013-02-22 13:52:00,
2013-02-22 04:57:00,28.9,19.8,29.34,North,0,0.0,-999.0,68,0.00,,,-99.99,,2013-02-22 13:57:00,
2013-02-22 05:02:00,28.5,20.3,29.34,North,0,0.0,-999.0,71,0.00,,,-99.99,,2013-02-22 14:02:00,
2013-02-22 05:07:00,28.1,21.1,29.34,North,0,0.0,-999.0,74,0.00,,,-99.99,,2013-02-22 14:07:00,
2013-02-22 05:12:00,28.0,21.1,29.34,North,0,0.0,-999.0,75,0.00,,,-99.99,,2013-02-22 14:12:00,
2013-02-22 05:17:00,28.0,20.7,29.34,North,0,0.0,-999.0,73,0.00,,,-99.99,,2013-02-22 14:17:00,
2013-02-22 05:22:00,28.0,20.8,29.34,North,0,0.0,-999.0,74,0.00,,,-99.99,,2013-02-22 14:22:00,
2013-02-22 05:27:00,28.0,21.4,29.34,North,0,0.0,-999.0,75,0.00,,,-99.99,,2013-02-22 14:27:00,
2013-02-22 05:32:00,28.1,21.4,29.34,North,0,0.0,-999.0,75,0.00,,,-99.99,,2013-02-22 14:32:00,
2013-02-22 05:37:00,27.8,21.2,29.34,North,0,0.0,-999.0,75,0.00,,,-99.99,,2013-02-22 14:37:00,
2013-02-22 05:42:00,27.6,20.5,29.34,North,0,0.0,-999.0,74,0.00,,,-99.99,,2013-02-22 14:42:00,
2013-02-22 05:47:00,28.0,20.4,29.34,North,0,0.0,-999.0,72,0.00,,,-99.99,,2013-02-22 14:47:00,
2013-02-22 05:52:00,27.8,20.7,29.34,North,0,0.0,-999.0,74,0.00,,,-99.99,,2013-02-22 14:52:00,
2013-02-22 05:57:00,28.0,20.8,29.34,North,0,0.0,-999.0,74,0.00,,,-99.99,,2013-02-22 14:57:00,
2013-02-22 06:03:00,28.0,21.4,29.33,North,0,0.0,-999.0,76,0.00,,,-99.99,,2013-02-22 15:03:00,
2013-02-22 06:08:00,28.0,21.0,29.33,North,0,0.0,-999.0,74,0.00,,,-99.99,,2013-02-22 15:08:00,
2013-02-22 06:13:00,28.0,20.7,29.33,North,0,0.0,-999.0,73,0.00,,,-99.99,,2013-02-22 15:13:00,
2013-02-22 06:18:00,28.0,20.8,29.33,North,0,0.0,-999.0,74,0.00,,,-99.99,,2013-02-22 15:18:00,
2013-02-22 06:23:00,28.3,20.8,29.33,North,0,0.0,-999.0,73,0.00,,,-99.99,,2013-02-22 15:23:00,
2013-02-22 06:28:00,28.6,21.1,29.33,North,0,0.0,-999.0,73,0.00,,,-99.99,,2013-02-22 15:28:00,
2013-02-22 06:33:00,28.8,21.8,29.33,North,0,0.0,-999.0,74,0.00,,,-99.99,,2013-02-22 15:33:00,
2013-02-22 06:38:00,28.5,21.9,29.33,North,0,0.0,-999.0,75,0.00,,,-99.99,,2013-02-22 15:38:00,
2013-02-22 06:43:00,28.8,21.9,29.33,North,0,0.0,-999.0,75,0.00,,,-99.99,,2013-02-22 15:43:00,
2013-02-22 06:48:00,29.5,22.4,29.33,North,0,0.0,-999.0,74,0.00,,,-99.99,,2013-02-22 15:48:00,
2013-02-22 06:53:00,30.0,22.2,29.33,North,0,0.0,-999.0,72,0.00,,,-99.99,,2013-02-22 15:53:00,
2013-02-22 06:58:00,30.2,22.5,29.33,North,0,0.0,-999.0,72,0.00,,,-99.99,,2013-02-22 15:58:00,
2013-02-22 07:03:00,30.4,22.1,29.34,North,0,0.0,-999.0,70,0.00,,,-99.99,,2013-02-22 16:03:00,
2013-02-22 07:08:00,30.5,22.7,29.34,North,0,0.0,-999.0,72,0.00,,,-99.99,,2013-02-22 16:08:00,
2013-02-22 07:13:00,30.7,22.4,29.34,North,0,0.0,-999.0,70,0.00,,,-99.99,,2013-02-22 16:13:00,
2013-02-22 07:18:00,30.7,22.4,29.34,North,0,0.0,-999.0,70,0.00,,,-99.99,,2013-02-22 16:18:00,
2013-02-22 07:23:00,31.1,22.7,29.34,North,0,0.0,-999.0,70,0.00,,,-99.99,,2013-02-22 16:23:00,
2013-02-22 07:28:00,30.8,22.9,29.34,North,0,0.0,-999.0,72,0.00,,,-99.99,,2013-02-22 16:28:00,
2013-02-22 07:33:00,30.8,22.7,29.34,North,0,0.0,-999.0,71,0.00,,,-99.99,,2013-02-22 16:33:00,
2013-02-22 07:38:00,30.8,22.4,29.34,North,0,0.0,-999.0,70,0.00,,,-99.99,,2013-02-22 16:38:00,
2013-02-22 07:43:00,30.8,22.9,29.34,North,0,0.0,-999.0,72,0.00,,,-99.99,,2013-02-22 16:43:00,
2013-02-22 07:48:00,31.0,22.9,29.34,North,0,0.0,-999.0,71,0.00,,,-99.99,,2013-02-22 16:48:00,
2013-02-22 07:53:00,31.0,23.2,29.34,North,0,0.0,-999.0,72,0.00,,,-99.99,,2013-02-22 16:53:00,
2013-02-22 07:58:00,30.7,23.3,29.34,North,0,0.0,-999.0,73,0.00,,,-99.99,,2013-02-22 16:58:00,
2013-02-22 08:03:00,31.1,23.1,29.35,North,0,0.0,-999.0,71,0.00,,,-99.99,,2013-02-22 17:03:00,
2013-02-22 08:08:00,31.2,23.0,29.35,North,0,0.0,-999.0,71,0.00,,,-99.99,,2013-02-22 17:08:00,
2013-02-22 08:13:00,31.2,22.6,29.35,North,0,0.0,-999.0,70,0.00,,,-99.99,,2013-02-22 17:13:00,
2013-02-22 08:18:00,31.6,23.0,29.35,North,0,0.0,-999.0,69,0.00,,,-99.99,,2013-02-22 17:18:00,
2013-02-22 08:23:00,31.5,22.4,29.35,North,0,0.0,-999.0,68,0.00,,,-99.99,,2013-02-22 17:23:00,
2013-02-22 08:28:00,31.6,22.3,29.35,North,0,0.0,-999.0,68,0.00,,,-99.99,,2013-02-22 17:28:00,
2013-02-22 08:33:00,31.8,22.5,29.35,North,0,0.0,-999.0,68,0.01,,,-99.99,,2013-02-22 17:33:00,
2013-02-22 08:38:00,31.5,22.3,29.35,North,0,0.0,-999.0,68,0.01,,,-99.99,,2013-02-22 17:38:00,
2013-02-22 08:43:00,31.3,22.0,29.35,North,0,0.0,-999.0,67,0.01,,,-99.99,,2013-02-22 17:43:00,
2013-02-22 08:48:00,31.8,22.4,29.35,North,0,0.0,-999.0,67,0.01,,,-99.99,,2013-02-22 17:48:00,
2013-02-22 08:53:00,31.5,22.3,29.35,North,0,0.0,-999.0,68,0.01,,,-99.99,,2013-02-22 17:53:00,
2013-02-22 08:58:00,31.5,21.6,29.35,North,0,0.0,-999.0,66,0.01,,,-99.99,,2013-02-22 17:58:00,
2013-02-22 09:03:00,32.1,22.0,29.37,North,0,0.0,-999.0,66,0.00,,,-99.99,,2013-02-22 18:03:00,
2013-02-22 09:08:00,31.8,22.1,29.37,North,0,0.0,-999.0,67,0.00,,,-99.99,,2013-02-22 18:08:00,
2013-02-22 09:13:00,31.6,22.4,29.37,North,0,0.0,-999.0,68,0.00,,,-99.99,,2013-02-22 18:13:00,
2013-02-22 09:18:00,31.8,22.8,29.37,North,0,0.0,-999.0,68,0.00,,,-99.99,,2013-02-22 18:18:00,
2013-02-22 09:23:00,31.6,22.4,29.37,North,0,0.0,-999.0,68,0.00,,,-99.99,,2013-02-22 18:23:00,
2013-02-22 09:28:00,31.8,22.3,29.37,North,0,0.0,-999.0,67,0.00,,,-99.99,,2013-02-22 18:28:00,
2013-02-22 09:33:00,31.8,21.9,29.37,North,0,0.0,-999.0,66,0.00,,,-99.99,,2013-02-22 18:33:00,
2013-02-22 09:38:00,32.0,21.4,29.37,North,0,0.0,-999.0,64,0.00,,,-99.99,,2013-02-22 18:38:00,
2013-02-22 09:43:00,32.2,22.8,29.37,North,0,0.0,-999.0,67,0.00,,,-99.99,,2013-02-22 18:43:00,
2013-02-22 09:48:00,32.5,22.7,29.37,North,0,0.0,-999.0,66,0.00,,,-99.99,,2013-02-22 18:48:00,
2013-02-22 09:53:00,32.9,23.0,29.37,North,0,0.0,-999.0,66,0.00,,,-99.99,,2013-02-22 18:53:00,
2013-02-22 09:58:00,33.8,22.4,29.37,North,0,0.0,-999.0,62,0.00,,,-99.99,,2013-02-22 18:58:00,
2013-02-22 10:03:00,33.6,21.9,29.38,North,0,0.0,-999.0,61,0.00,,,-99.99,,2013-02-22 19:03:00,
2013-02-22 10:08:00,34.0,20.3,29.38,North,0,0.0,-999.0,56,0.00,,,-99.99,,2013-02-22 19:08:00,
2013-02-22 10:13:00,34.3,22.7,29.38,North,0,0.0,-999.0,62,0.00,,,-99.99,,2013-02-22 19:13:00,
2013-02-22 10:18:00,34.2,21.7,29.38,North,0,0.0,-999.0,59,0.00,,,-99.99,,2013-02-22 19:18:00,
2013-02-22 10:23:00,34.4,21.1,29.38,North,0,0.0,-999.0,57,0.00,,,-99.99,,2013-02-22 19:23:00,
2013-02-22 10:28:00,34.3,21.5,29.38,North,0,0.0,-999.0,59,0.00,,,-99.99,,2013-02-22 19:28:00,
2013-02-22 10:33:00,33.7,20.3,29.38,North,0,0.0,-999.0,57,0.00,,,-99.99,,2013-02-22 19:33:00,
2013-02-22 10:38:00,33.6,21.2,29.38,North,0,0.0,-999.0,59,0.00,,,-99.99,,2013-02-22 19:38:00,
2013-02-22 10:43:00,33.6,20.8,29.38,North,0,0.0,-999.0,59,0.00,,,-99.99,,2013-02-22 19:43:00,
2013-02-22 10:48:00,33.5,21.1,29.38,North,0,0.0,-999.0,60,0.00,,,-99.99,,2013-02-22 19:48:00,
2013-02-22 10:53:00,34.0,20.8,29.38,North,0,0.0,-999.0,58,0.00,,,-99.99,,2013-02-22 19:53:00,
2013-02-22 10:58:00,34.3,20.4,29.38,North,0,0.0,-999.0,56,0.00,,,-99.99,,2013-02-22 19:58:00,
2013-02-22 11:03:00,33.8,21.3,29.39,North,0,0.0,-999.0,59,0.00,,,-99.99,,2013-02-22 20:03:00,
2013-02-22 11:08:00,34.2,20.7,29.39,North,0,0.0,-999.0,57,0.00,,,-99.99,,2013-02-22 20:08:00,
2013-02-22 11:13:00,34.6,21.1,29.39,North,0,0.0,-999.0,57,0.00,,,-99.99,,2013-02-22 20:13:00,
2013-02-22 11:18:00,33.8,20.2,29.39,North,0,0.0,-999.0,57,0.00,,,-99.99,,2013-02-22 20:18:00,
2013-02-22 11:23:00,33.7,20.4,29.39,North,0,0.0,-999.0,57,0.00,,,-99.99,,2013-02-22 20:23:00,
2013-02-22 11:28:00,33.2,21.4,29.39,North,0,0.0,-999.0,61,0.00,,,-99.99,,2013-02-22 20:28:00,
2013-02-22 11:33:00,32.9,18.4,29.39,North,0,0.0,-999.0,54,0.00,,,-99.99,,2013-02-22 20:33:00,
2013-02-22 11:38:00,33.7,20.0,29.39,North,0,0.0,-999.0,56,0.00,,,-99.99,,2013-02-22 20:38:00,
2013-02-22 11:43:00,34.3,20.3,29.39,North,0,0.0,-999.0,56,0.00,,,-99.99,,2013-02-22 20:43:00,
2013-02-22 11:48:00,35.5,20.5,29.39,North,0,0.0,-999.0,53,0.00,,,-99.99,,2013-02-22 20:48:00,
2013-02-22 11:53:00,35.8,20.4,29.39,North,0,0.0,-999.0,53,0.00,,,-99.99,,2013-02-22 20:53:00,
2013-02-22 11:58:00,35.9,18.8,29.39,North,0,0.0,-999.0,49,0.00,,,-99.99,,2013-02-22 20:58:00,
2013-02-22 12:03:00,36.5,18.5,29.42,North,0,0.0,-999.0,47,0.00,,,-99.99,,2013-02-22 21:03:00,
2013-02-22 12:08:00,36.0,19.1,29.42,North,0,0.0,-999.0,49,0.00,,,-99.99,,2013-02-22 21:08:00,
2013-02-22 12:13:00,35.2,20.6,29.42,North,0,0.0,-999.0,54,0.00,,,-99.99,,2013-02-22 21:13:00,
2013-02-22 12:18:00,35.1,21.3,29.42,North,0,0.0,-999.0,56,0.00,,,-99.99,,2013-02-22 21:18:00,
2013-02-22 12:23:00,35.5,21.1,29.42,North,0,0.0,-999.0,55,0.00,,,-99.99,,2013-02-22 21:23:00,
2013-02-22 12:28:00,35.2,21.3,29.42,North,0,0.0,-999.0,56,0.00,,,-99.99,,2013-02-22 21:28:00,
2013-02-22 12:33:00,36.1,21.1,29.42,North,0,0.0,-999.0,54,0.00,,,-99.99,,2013-02-22 21:33:00,
2013-02-22 12:38:00,36.0,20.3,29.42,North,0,0.0,-999.0,52,0.00,,,-99.99,,2013-02-22 21:38:00,
2013-02-22 12:43:00,36.4,21.1,29.42,North,0,0.0,-999.0,53,0.00,,,-99.99,,2013-02-22 21:43:00,
2013-02-22 12:48:00,36.4,20.6,29.42,North,0,0.0,-999.0,52,0.00,,,-99.99,,2013-02-22 21:48:00,
2013-02-22 12:53:00,36.6,20.6,29.42,North,0,0.0,-999.0,51,0.00,,,-99.99,,2013-02-22 21:53:00,
2013-02-22 12:58:00,35.5,21.7,29.42,North,0,0.0,-999.0,56,0.00,,,-99.99,,2013-02-22 21:58:00,
2013-02-22 13:03:00,35.9,20.6,29.41,North,0,0.0,-999.0,53,0.00,,,-99.99,,2013-02-22 22:03:00,
2013-02-22 13:08:00,35.6,20.2,29.41,North,0,0.0,-999.0,53,0.00,,,-99.99,,2013-02-22 22:08:00,
2013-02-22 13:13:00,35.3,20.1,29.41,North,0,0.0,-999.0,53,0.00,,,-99.99,,2013-02-22 22:13:00,
2013-02-22 13:18:00,35.6,19.8,29.41,North,0,0.0,-999.0,52,0.00,,,-99.99,,2013-02-22 22:18:00,
2013-02-22 13:23:00,36.4,20.0,29.41,North,0,0.0,-999.0,51,0.00,,,-99.99,,2013-02-22 22:23:00,
2013-02-22 13:28:00,35.4,20.3,29.41,North,0,0.0,-999.0,53,0.00,,,-99.99,,2013-02-22 22:28:00,
2013-02-22 13:33:00,36.1,19.3,29.41,North,0,0.0,-999.0,50,0.00,,,-99.99,,2013-02-22 22:33:00,
2013-02-22 13:38:00,36.5,20.3,29.41,North,0,0.0,-999.0,51,0.00,,,-99.99,,2013-02-22 22:38:00,
2013-02-22 13:43:00,35.8,18.7,29.41,North,0,0.0,-999.0,49,0.00,,,-99.99,,2013-02-22 22:43:00,
2013-02-22 13:48:00,36.4,19.6,29.41,North,0,0.0,-999.0,50,0.00,,,-99.99,,2013-02-22 22:48:00,
2013-02-22 13:53:00,36.0,20.8,29.41,North,0,0.0,-999.0,53,0.00,,,-99.99,,2013-02-22 22:53:00,
2013-02-22 13:58:00,36.0,20.6,29.41,North,0,0.0,-999.0,53,0.00,,,-99.99,,2013-02-22 22:58:00,
2013-02-22 14:03:00,36.5,20.8,29.42,North,0,0.0,-999.0,52,0.00,,,-99.99,,2013-02-22 23:03:00,
2013-02-22 14:08:00,35.9,20.5,29.42,North,0,0.0,-999.0,52,0.00,,,-99.99,,2013-02-22 23:08:00,
2013-02-22 14:13:00,36.0,20.0,29.42,North,0,0.0,-999.0,51,0.00,,,-99.99,,2013-02-22 23:13:00,
2013-02-22 14:18:00,35.2,21.4,29.42,North,0,0.0,-999.0,56,0.00,,,-99.99,,2013-02-22 23:18:00,
2013-02-22 14:23:00,35.5,20.7,29.42,North,0,0.0,-999.0,54,0.00,,,-99.99,,2013-02-22 23:23:00,
2013-02-22 14:28:00,35.1,21.1,29.42,North,0,0.0,-999.0,56,0.00,,,-99.99,,2013-02-22 23:28:00,
2013-02-22 14:33:00,35.7,22.1,29.42,North,0,0.0,-999.0,57,0.00,,,-99.99,,2013-02-22 23:33:00,
2013-02-22 14:38:00,35.0,22.2,29.42,North,0,0.0,-999.0,59,0.00,,,-99.99,,2013-02-22 23:38:00,
2013-02-22 14:43:00,35.3,21.7,29.42,North,0,0.0,-999.0,57,0.00,,,-99.99,,2013-02-22 23:43:00,
2013-02-22 14:48:00,35.2,21.3,29.42,North,0,0.0,-999.0,56,0.00,,,-99.99,,2013-02-22 23:48:00,
2013-02-22 14:53:00,35.4,20.9,29.42,North,0,0.0,-999.0,55,0.00,,,-99.99,,2013-02-22 23:53:00,
2013-02-22 14:58:00,35.6,21.3,29.42,North,0,0.0,-999.0,55,0.00,,,-99.99,,2013-02-22 23:58:00,
2013-02-22 15:03:00,35.9,20.5,29.39,North,0,0.0,-999.0,52,0.00,,,-99.99,,2013-02-23 00:03:00,
2013-02-22 15:08:00,35.4,21.3,29.39,North,0,0.0,-999.0,55,0.00,,,-99.99,,2013-02-23 00:08:00,
2013-02-22 15:13:00,35.2,22.1,29.39,North,0,0.0,-999.0,58,0.00,,,-99.99,,2013-02-23 00:13:00,
2013-02-22 15:18:00,34.7,20.9,29.39,North,0,0.0,-999.0,56,0.00,,,-99.99,,2013-02-23 00:18:00,
2013-02-22 15:23:00,34.3,22.5,29.39,North,0,0.0,-999.0,61,0.00,,,-99.99,,2013-02-23 00:23:00,
2013-02-22 15:28:00,34.0,20.3,29.39,North,0,0.0,-999.0,56,0.00,,,-99.99,,2013-02-23 00:28:00,
2013-02-22 15:33:00,33.2,22.2,29.39,North,0,0.0,-999.0,63,0.00,,,-99.99,,2013-02-23 00:33:00,
2013-02-22 15:38:00,32.9,22.4,29.39,North,0,0.0,-999.0,64,0.00,,,-99.99,,2013-02-23 00:38:00,
2013-02-22 15:43:00,32.7,21.1,29.39,North,0,0.0,-999.0,61,0.00,,,-99.99,,2013-02-23 00:43:00,
2013-02-22 15:48:00,33.1,22.0,29.39,North,0,0.0,-999.0,63,0.00,,,-99.99,,2013-02-23 00:48:00,
2013-02-22 15:53:00,33.4,22.5,29.39,North,0,0.0,-999.0,63,0.00,,,-99.99,,2013-02-23 00:53:00,
2013-02-22 15:58:00,33.8,23.0,29.39,North,0,0.0,-999.0,64,0.00,,,-99.99,,2013-02-23 00:58:00,
2013-02-22 16:03:00,33.4,22.4,29.40,North,0,0.0,-999.0,63,0.00,,,-99.99,,2013-02-23 01:03:00,
2013-02-22 16:08:00,33.7,21.7,29.40,North,0,0.0,-999.0,61,0.00,,,-99.99,,2013-02-23 01:08:00,
2013-02-22 16:13:00,33.9,21.3,29.40,North,0,0.0,-999.0,59,0.00,,,-99.99,,2013-02-23 01:13:00,
2013-02-22 16:18:00,33.3,23.0,29.40,North,0,0.0,-999.0,65,0.00,,,-99.99,,2013-02-23 01:18:00,
2013-02-22 16:23:00,32.9,23.2,29.40,North,0,0.0,-999.0,67,0.00,,,-99.99,,2013-02-23 01:23:00,
2013-02-22 16:28:00,32.9,23.0,29.40,North,0,0.0,-999.0,66,0.00,,,-99.99,,2013-02-23 01:28:00,
2013-02-22 16:33:00,32.9,23.4,29.40,North,0,0.0,-999.0,67,0.00,,,-99.99,,2013-02-23 01:33:00,
2013-02-22 16:38:00,33.0,21.4,29.40,North,0,0.0,-999.0,61,0.00,,,-99.99,,2013-02-23 01:38:00,
2013-02-22 16:43:00,33.0,20.9,29.40,North,0,0.0,-999.0,60,0.00,,,-99.99,,2013-02-23 01:43:00,
2013-02-22 16:48:00,33.1,21.0,29.40,North,0,0.0,-999.0,60,0.00,,,-99.99,,2013-02-23 01:48:00,
2013-02-22 16:53:00,33.0,21.5,29.40,North,0,0.0,-999.0,62,0.00,,,-99.99,,2013-02-23 01:53:00,
2013-02-22 16:58:00,32.6,22.0,29.40,North,0,0.0,-999.0,64,0.00,,,-99.99,,2013-02-23 01:58:00,
2013-02-22 17:03:00,32.7,22.6,29.39,North,0,0.0,-999.0,65,0.00,,,-99.99,,2013-02-23 02:03:00,
2013-02-22 17:08:00,32.7,22.5,29.39,North,0,0.0,-999.0,65,0.00,,,-99.99,,2013-02-23 02:08:00,
2013-02-22 17:13:00,32.7,20.6,29.39,North,0,0.0,-999.0,60,0.00,,,-99.99,,2013-02-23 02:13:00,
2013-02-22 17:18:00,33.2,20.5,29.39,North,0,0.0,-999.0,59,0.00,,,-99.99,,2013-02-23 02:18:00,
2013-02-22 17:23:00,32.9,21.5,29.39,North,0,0.0,-999.0,62,0.00,,,-99.99,,2013-02-23 02:23:00,
2013-02-22 17:28:00,32.2,20.9,29.39,North,0,0.0,-999.0,62,0.00,,,-99.99,,2013-02-23 02:28:00,
2013-02-22 17:33:00,32.1,22.2,29.39,North,0,0.0,-999.0,66,0.00,,,-99.99,,2013-02-23 02:33:00,
2013-02-22 17:38:00,31.6,20.2,29.39,North,0,0.0,-999.0,62,0.00,,,-99.99,,2013-02-23 02:38:00,
2013-02-22 17:43:00,31.7,21.4,29.39,North,0,0.0,-999.0,65,0.00,,,-99.99,,2013-02-23 02:43:00,
2013-02-22 17:48:00,31.5,21.9,29.39,North,0,0.0,-999.0,67,0.00,,,-99.99,,2013-02-23 02:48:00,
2013-02-22 17:53:00,31.1,20.5,29.39,North,0,0.0,-999.0,64,0.00,,,-99.99,,2013-02-23 02:53:00,
2013-02-22 17:58:00,31.5,20.5,29.39,North,0,0.0,-999.0,63,0.00,,,-99.99,,2013-02-23 02:58:00,
2013-02-22 18:03:00,31.5,22.0,29.36,North,0,0.0,-999.0,67,0.00,,,-99.99,,2013-02-23 03:03:00,
2013-02-22 18:08:00,31.3,22.1,29.36,North,0,0.0,-999.0,68,0.00,,,-99.99,,2013-02-23 03:08:00,
2013-02-22 18:13:00,31.0,22.3,29.36,North,0,0.0,-999.0,70,0.00,,,-99.99,,2013-02-23 03:13:00,
2013-02-22 18:18:00,31.0,21.2,29.36,North,0,0.0,-999.0,66,0.00,,,-99.99,,2013-02-23 03:18:00,
2013-02-22 18:23:00,31.4,21.9,29.36,North,0,0.0,-999.0,67,0.00,,,-99.99,,2013-02-23 03:23:00,
2013-02-22 18:28:00,31.4,21.9,29.36,North,0,0.0,-999.0,67,0.00,,,-99.99,,2013-02-23 03:28:00,
2013-02-22 18:33:00,31.0,22.0,29.36,North,0,0.0,-999.0,68,0.00,,,-99.99,,2013-02-23 03:33:00,
2013-02-22 18:38:00,31.1,23.0,29.36,North,0,0.0,-999.0,71,0.00,,,-99.99,,2013-02-23 03:38:00,
2013-02-22 18:43:00,31.3,22.4,29.36,North,0,0.0,-999.0,69,0.00,,,-99.99,,2013-02-23 03:43:00,
2013-02-22 18:48:00,31.5,21.8,29.36,North,0,0.0,-999.0,67,0.00,,,-99.99,,2013-02-23 03:48:00,
2013-02-22 18:53:00,31.2,21.9,29.36,North,0,0.0,-999.0,68,0.00,,,-99.99,,2013-02-23 03:53:00,
2013-02-22 18:58:00,31.5,22.2,29.36,North,0,0.0,-999.0,68,0.00,,,-99.99,,2013-02-23 03:58:00,
2013-02-22 19:03:00,31.3,22.6,29.33,North,0,0.0,-999.0,69,0.00,,,-99.99,,2013-02-23 04:03:00,
2013-02-22 19:08:00,30.9,22.8,29.33,North,0,0.0,-999.0,71,0.00,,,-99.99,,2013-02-23 04:08:00,
2013-02-22 19:13:00,30.6,22.3,29.33,North,0,0.0,-999.0,70,0.00,,,-99.99,,2013-02-23 04:13:00,
2013-02-22 19:18:00,30.7,21.8,29.33,North,0,0.0,-999.0,69,0.00,,,-99.99,,2013-02-23 04:18:00,
2013-02-22 19:23:00,30.7,22.4,29.33,North,0,0.0,-999.0,70,0.00,,,-99.99,,2013-02-23 04:23:00,
2013-02-22 19:28:00,30.6,22.3,29.33,North,0,0.0,-999.0,70,0.00,,,-99.99,,2013-02-23 04:28:00,
2013-02-22 19:33:00,30.6,22.2,29.33,North,0,0.0,-999.0,70,0.00,,,-99.99,,2013-02-23 04:33:00,
2013-02-22 19:38:00,30.6,21.7,29.33,North,0,0.0,-999.0,68,0.00,,,-99.99,,2013-02-23 04:38:00,
2013-02-22 19:43:00,30.6,21.7,29.33,North,0,0.0,-999.0,68,0.00,,,-99.99,,2013-02-23 04:43:00,
2013-02-22 19:48:00,31.0,21.0,29.33,North,0,0.0,-999.0,66,0.00,,,-99.99,,2013-02-23 04:48:00,
2013-02-22 19:53:00,31.5,22.1,29.33,North,0,0.0,-999.0,67,0.00,,,-99.99,,2013-02-23 04:53:00,
2013-02-22 19:58:00,31.0,22.1,29.33,North,0,0.0,-999.0,69,0.00,,,-99.99,,2013-02-23 04:58:00,
2013-02-22 20:00:00,30.9,21.3,29.29,North,0,0.0,-999.0,67,0.00,,,-99.99,,2013-02-23 05:00:00,
2013-02-22 20:06:00,31.1,22.2,29.29,North,0,0.0,-999.0,69,0.00,,,-99.99,,2013-02-23 05:06:00,
2013-02-22 20:11:00,30.8,21.7,29.29,North,0,0.0,-999.0,68,0.00,,,-99.99,,2013-02-23 05:11:00,
2013-02-22 20:16:00,30.5,22.4,29.29,North,0,0.0,-999.0,71,0.00,,,-99.99,,2013-02-23 05:16:00,
2013-02-22 20:21:00,30.3,21.8,29.29,North,0,0.0,-999.0,70,0.00,,,-99.99,,2013-02-23 05:21:00,
2013-02-22 20:24:00,30.4,22.0,29.29,North,0,0.0,-999.0,70,0.00,,,-99.99,,2013-02-23 05:24:00,
2013-02-22 20:29:00,30.4,22.3,29.29,North,0,0.0,-999.0,71,0.00,,,-99.99,,2013-02-23 05:29:00,
2013-02-22 20:31:00,30.5,22.1,29.29,North,0,0.0,-999.0,70,0.00,,,-99.99,,2013-02-23 05:31:00,
2013-02-22 20:34:00,30.7,21.9,29.29,North,0,0.0,-999.0,69,0.00,,,-99.99,,2013-02-23 05:34:00,
2013-02-22 20:39:00,31.1,22.5,29.29,North,0,0.0,-999.0,70,0.00,,,-99.99,,2013-02-23 05:39:00,
2013-02-22 20:44:00,30.7,22.9,29.29,North,0,0.0,-999.0,72,0.00,,,-99.99,,2013-02-23 05:44:00,
2013-02-22 20:49:00,30.8,22.5,29.29,North,0,0.0,-999.0,71,0.00,,,-99.99,,2013-02-23 05:49:00,
2013-02-22 20:54:00,30.8,22.2,29.29,North,0,0.0,-999.0,70,0.00,,,-99.99,,2013-02-23 05:54:00,
2013-02-22 20:59:00,31.0,22.1,29.26,North,0,0.0,-999.0,69,0.00,,,-99.99,,2013-02-23 05:59:00,
2013-02-22 21:04:00,31.0,22.1,29.26,North,0,0.0,-999.0,69,0.00,,,-99.99,,2013-02-23 06:04:00,
2013-02-22 21:09:00,31.1,21.7,29.26,North,0,0.0,-999.0,67,0.00,,,-99.99,,2013-02-23 06:09:00,
2013-02-22 21:14:00,31.1,22.0,29.26,North,0,0.0,-999.0,68,0.00,,,-99.99,,2013-02-23 06:14:00,
2013-02-22 21:19:00,31.1,22.0,29.26,North,0,0.0,-999.0,68,0.00,,,-99.99,,2013-02-23 06:19:00,
2013-02-22 21:24:00,32.4,22.1,29.26,North,0,0.0,-999.0,65,0.00,,,-99.99,,2013-02-23 06:24:00,
2013-02-22 21:29:00,32.6,22.3,29.26,North,0,0.0,-999.0,65,0.00,,,-99.99,,2013-02-23 06:29:00,
2013-02-22 21:34:00,32.6,22.7,29.26,North,0,0.0,-999.0,66,0.00,,,-99.99,,2013-02-23 06:34:00,
2013-02-22 21:39:00,32.5,23.2,29.26,North,0,0.0,-999.0,68,0.00,,,-99.99,,2013-02-23 06:39:00,
2013-02-22 21:44:00,32.8,23.3,29.26,North,0,0.0,-999.0,67,0.00,,,-99.99,,2013-02-23 06:44:00,
2013-02-22 21:49:00,32.8,22.9,29.26,North,0,0.0,-999.0,66,0.00,,,-99.99,,2013-02-23 06:49:00,
2013-02-22 21:54:00,32.7,23.0,29.26,North,0,0.0,-999.0,66,0.00,,,-99.99,,2013-02-23 06:54:00,
2013-02-22 21:59:00,32.6,22.9,29.22,North,0,0.0,-999.0,66,0.00,,,-99.99,,2013-02-23 06:59:00,
2013-02-22 22:04:00,32.2,23.0,29.22,North,0,0.0,-999.0,68,0.00,,,-99.99,,2013-02-23 07:04:00,
2013-02-22 22:11:00,32.0,23.4,29.22,North,0,0.0,-999.0,70,0.00,,,-99.99,,2013-02-23 07:11:00,
2013-02-22 22:16:00,31.9,23.5,29.22,North,0,0.0,-999.0,70,0.00,,,-99.99,,2013-02-23 07:16:00,
2013-02-22 22:21:00,31.9,23.3,29.22,North,0,0.0,-999.0,70,0.00,,,-99.99,,2013-02-23 07:21:00,
2013-02-22 22:26:00,32.0,23.6,29.22,North,0,0.0,-999.0,70,0.00,,,-99.99,,2013-02-23 07:26:00,
2013-02-22 22:31:00,31.9,23.4,29.22,North,0,0.0,-999.0,70,0.00,,,-99.99,,2013-02-23 07:31:00,
2013-02-22 22:36:00,31.7,24.1,29.22,North,0,0.0,-999.0,73,0.00,,,-99.99,,2013-02-23 07:36:00,
2013-02-22 22:41:00,31.7,24.8,29.22,North,0,0.0,-999.0,75,0.00,,,-99.99,,2013-02-23 07:41:00,
2013-02-22 22:46:00,31.5,26.6,29.22,North,0,0.0,-999.0,82,0.00,,,-99.99,,2013-02-23 07:46:00,
2013-02-22 22:51:00,31.4,27.8,29.22,North,0,0.0,-999.0,86,0.00,,,-99.99,,2013-02-23 07:51:00,
2013-02-22 22:56:00,31.2,27.9,29.22,North,0,0.0,-999.0,87,0.00,,,-99.99,,2013-02-23 07:56:00,
2013-02-22 23:01:00,31.2,28.3,29.17,North,0,0.0,-999.0,88,0.00,,,-99.99,,2013-02-23 08:01:00,
2013-02-22 23:06:00,31.1,28.7,29.17,North,0,0.0,-999.0,90,0.00,,,-99.99,,2013-02-23 08:06:00,
2013-02-22 23:11:00,31.0,29.2,29.17,North,0,0.0,-999.0,93,0.00,,,-99.99,,2013-02-23 08:11:00,
2013-02-22 23:16:00,31.7,30.5,29.17,North,0,0.0,-999.0,95,0.00,,,-99.99,,2013-02-23 08:16:00,
2013-02-22 23:21:00,31.9,30.7,29.17,North,0,0.0,-999.0,95,0.00,,,-99.99,,2013-02-23 08:21:00,
2013-02-22 23:26:00,32.0,30.8,29.17,North,0,0.0,-999.0,95,0.00,,,-99.99,,2013-02-23 08:26:00,
2013-02-22 23:31:00,31.9,30.7,29.17,North,0,0.0,-999.0,95,0.00,,,-99.99,,2013-02-23 08:31:00,
2013-02-22 23:36:00,31.9,30.8,29.17,North,0,0.0,-999.0,95,0.00,,,-99.99,,2013-02-23 08:36:00,
2013-02-22 23:41:00,31.7,30.7,29.17,North,0,0.0,-999.0,95,0.00,,,-99.99,,2013-02-23 08:41:00,
2013-02-22 23:46:00,32.0,31.0,29.17,North,0,0.0,-999.0,96,0.00,,,-99.99,,2013-02-23 08:46:00,
2013-02-22 23:51:00,31.9,30.9,29.17,North,0,0.0,-999.0,96,0.00,,,-99.99,,2013-02-23 08:51:00,
2013-02-22 23:56:00,31.9,30.8,29.17,North,0,0.0,-999.0,95,0.00,,,-99.99,,2013-02-23 08:56:00,